^^

..:: Storico WU ::..




Lo storico viene creato da WUnderground con i dati che la stazione Meteomincio invia al loro server. L' aggiornamento viene fatto ogni 5 minuti circa, tuttavia possono esserci intervalli pił ampi a causa di errori, interruzioni di servizio o problemi nell' invio tramite FTP.


Storico stazione MeteoMincio
Giorno Sommario per Giugno 15, 2022 Unità:  Metrico    Inglese   Entrambi
Giorno Settimana Mese Anno
  Max: Min: Media:
Temperatura: 32.0 °C 20.0 °C 26 °C
Dew Point: 22.0 °C 15.0 °C 18.3 °C
Umidità: 78% 49% 64%
Velocità vento: 13km/h 2km/h 6.8km/h
Raffica: 26km/h - -
Direzione- - East
Pressione: 1017.9 hPa 1014.6 hPa -
Precipitazioni: 0.00 mm    
 
 
Tabulato Dati per Giugno 15, 2022
Ora Temperatura Dew Point Pressione Direzione Velocità vento Raffica Umidità Intensità pioggia (oraria) Info solare Situazione
00:04 23.0 °C 17.0 °C 1016.9 hPa ENE 8 km/h 11 km/h 69% 0.00 mm 0.00 W/m2 unknown
00:09 22.0 °C 17.0 °C 1017.0 hPa NE 6 km/h 8 km/h 70% 0.00 mm 0.00 W/m2 unknown
00:14 22.0 °C 17.0 °C 1017.1 hPa NE 5 km/h 8 km/h 70% 0.00 mm 0.00 W/m2 unknown
00:19 22.0 °C 17.0 °C 1017.1 hPa NE 5 km/h 8 km/h 71% 0.00 mm 0.00 W/m2 unknown
00:24 22.0 °C 17.0 °C 1017.1 hPa NE 5 km/h 6 km/h 71% 0.00 mm 0.00 W/m2 unknown
00:29 22.0 °C 16.0 °C 1017.1 hPa NE 5 km/h 6 km/h 72% 0.00 mm 0.00 W/m2 unknown
00:34 22.0 °C 16.0 °C 1017.1 hPa ENE 5 km/h 8 km/h 72% 0.00 mm 0.00 W/m2 unknown
00:39 22.0 °C 17.0 °C 1017.1 hPa ENE 6 km/h 11 km/h 73% 0.00 mm 0.00 W/m2 unknown
00:44 22.0 °C 17.0 °C 1017.1 hPa ENE 8 km/h 11 km/h 73% 0.00 mm 0.00 W/m2 unknown
00:49 21.0 °C 16.0 °C 1017.1 hPa ENE 8 km/h 11 km/h 73% 0.00 mm 0.00 W/m2 unknown
00:54 21.0 °C 16.0 °C 1017.1 hPa ENE 8 km/h 11 km/h 73% 0.00 mm 0.00 W/m2 unknown
00:59 21.0 °C 16.0 °C 1017.1 hPa ENE 6 km/h 8 km/h 74% 0.00 mm 0.00 W/m2 unknown
01:04 21.0 °C 16.0 °C 1017.1 hPa ENE 5 km/h 8 km/h 74% 0.00 mm 0.00 W/m2 unknown
01:09 21.0 °C 16.0 °C 1017.1 hPa NE 5 km/h 6 km/h 74% 0.00 mm 0.00 W/m2 unknown
01:14 21.0 °C 16.0 °C 1017.1 hPa NE 5 km/h 8 km/h 74% 0.00 mm 0.00 W/m2 unknown
01:19 21.0 °C 16.0 °C 1017.1 hPa NE 7 km/h 8 km/h 74% 0.00 mm 0.00 W/m2 unknown
01:24 21.0 °C 16.0 °C 1017.1 hPa NE 6 km/h 8 km/h 74% 0.00 mm 0.00 W/m2 unknown
01:29 21.0 °C 16.0 °C 1017.1 hPa NE 5 km/h 8 km/h 74% 0.00 mm 0.00 W/m2 unknown
01:34 21.0 °C 16.0 °C 1017.1 hPa NE 6 km/h 10 km/h 74% 0.00 mm 0.00 W/m2 unknown
01:39 21.0 °C 16.0 °C 1017.1 hPa NE 6 km/h 10 km/h 75% 0.00 mm 0.00 W/m2 unknown
01:44 21.0 °C 16.0 °C 1017.1 hPa NE 6 km/h 10 km/h 75% 0.00 mm 0.00 W/m2 unknown
01:49 21.0 °C 16.0 °C 1017.1 hPa NE 6 km/h 10 km/h 75% 0.00 mm 0.00 W/m2 unknown
01:54 21.0 °C 16.0 °C 1017.1 hPa NE 5 km/h 8 km/h 75% 0.00 mm 0.00 W/m2 unknown
01:59 21.0 °C 16.0 °C 1017.1 hPa ENE 5 km/h 6 km/h 75% 0.00 mm 0.00 W/m2 unknown
02:04 21.0 °C 16.0 °C 1017.1 hPa NE 5 km/h 6 km/h 76% 0.00 mm 0.00 W/m2 unknown
02:09 21.0 °C 16.0 °C 1017.2 hPa NE 3 km/h 6 km/h 76% 0.00 mm 0.00 W/m2 unknown
02:14 21.0 °C 16.0 °C 1017.2 hPa NE 2 km/h 6 km/h 76% 0.00 mm 0.00 W/m2 unknown
02:19 21.0 °C 16.0 °C 1017.2 hPa NE 4 km/h 6 km/h 76% 0.00 mm 0.00 W/m2 unknown
02:24 21.0 °C 16.0 °C 1017.2 hPa ENE 4 km/h 6 km/h 76% 0.00 mm 0.00 W/m2 unknown
02:29 21.0 °C 16.0 °C 1017.2 hPa NE 4 km/h 6 km/h 76% 0.00 mm 0.00 W/m2 unknown
02:34 20.0 °C 16.0 °C 1017.2 hPa ENE 4 km/h 6 km/h 77% 0.00 mm 0.00 W/m2 unknown
02:39 20.0 °C 16.0 °C 1017.1 hPa NE 4 km/h 6 km/h 77% 0.00 mm 0.00 W/m2 unknown
02:44 20.0 °C 16.0 °C 1017.1 hPa NE 4 km/h 6 km/h 77% 0.00 mm 0.00 W/m2 unknown
02:49 20.0 °C 16.0 °C 1017.1 hPa NE 4 km/h 6 km/h 77% 0.00 mm 0.00 W/m2 unknown
02:54 20.0 °C 16.0 °C 1017.1 hPa NE 5 km/h 6 km/h 76% 0.00 mm 0.00 W/m2 unknown
02:59 20.0 °C 16.0 °C 1017.1 hPa NE 5 km/h 6 km/h 76% 0.00 mm 0.00 W/m2 unknown
03:04 21.0 °C 16.0 °C 1017.2 hPa NE 4 km/h 6 km/h 76% 0.00 mm 0.00 W/m2 unknown
03:09 21.0 °C 16.0 °C 1017.2 hPa NE 5 km/h 6 km/h 75% 0.00 mm 0.00 W/m2 unknown
03:14 21.0 °C 16.0 °C 1017.2 hPa ENE 6 km/h 8 km/h 75% 0.00 mm 0.00 W/m2 unknown
03:19 21.0 °C 16.0 °C 1017.1 hPa ENE 6 km/h 8 km/h 74% 0.00 mm 0.00 W/m2 unknown
03:24 21.0 °C 16.0 °C 1017.2 hPa ENE 5 km/h 8 km/h 73% 0.00 mm 0.00 W/m2 unknown
03:29 21.0 °C 16.0 °C 1017.2 hPa ENE 5 km/h 8 km/h 73% 0.00 mm 0.00 W/m2 unknown
03:34 21.0 °C 16.0 °C 1017.2 hPa ENE 5 km/h 8 km/h 73% 0.00 mm 0.00 W/m2 unknown
03:39 21.0 °C 16.0 °C 1017.1 hPa ENE 5 km/h 8 km/h 73% 0.00 mm 0.00 W/m2 unknown
03:44 21.0 °C 16.0 °C 1017.1 hPa ENE 5 km/h 8 km/h 73% 0.00 mm 0.00 W/m2 unknown
03:49 20.0 °C 15.0 °C 1017.1 hPa ENE 5 km/h 8 km/h 73% 0.00 mm 0.00 W/m2 unknown
03:54 20.0 °C 15.0 °C 1017.1 hPa ENE 6 km/h 8 km/h 73% 0.00 mm 0.00 W/m2 unknown
03:59 20.0 °C 15.0 °C 1017.0 hPa ENE 6 km/h 8 km/h 73% 0.00 mm 0.00 W/m2 unknown
04:03 21.0 °C 15.0 °C 1017.0 hPa NE 5 km/h 6 km/h 72% 0.00 mm 0.00 W/m2 unknown
04:08 21.0 °C 15.0 °C 1017.1 hPa NE 5 km/h 6 km/h 72% 0.00 mm 0.00 W/m2 unknown
04:13 21.0 °C 15.0 °C 1017.1 hPa ENE 5 km/h 6 km/h 71% 0.00 mm 0.00 W/m2 unknown
04:19 21.0 °C 15.0 °C 1017.1 hPa NE 5 km/h 6 km/h 70% 0.00 mm 0.00 W/m2 unknown
04:24 21.0 °C 15.0 °C 1017.1 hPa NE 5 km/h 6 km/h 70% 0.00 mm 0.00 W/m2 unknown
04:28 21.0 °C 15.0 °C 1017.2 hPa NE 5 km/h 6 km/h 70% 0.00 mm 0.00 W/m2 unknown
04:34 21.0 °C 15.0 °C 1017.2 hPa ENE 6 km/h 6 km/h 69% 0.00 mm 0.00 W/m2 unknown
04:38 21.0 °C 15.0 °C 1017.1 hPa ENE 5 km/h 6 km/h 69% 0.00 mm 0.00 W/m2 unknown
04:44 21.0 °C 15.0 °C 1017.1 hPa ENE 6 km/h 8 km/h 70% 0.00 mm 0.00 W/m2 unknown
04:48 21.0 °C 15.0 °C 1017.1 hPa ENE 6 km/h 8 km/h 70% 0.00 mm 0.00 W/m2 unknown
04:53 21.0 °C 15.0 °C 1017.1 hPa NE 6 km/h 8 km/h 70% 0.00 mm 0.00 W/m2 unknown
04:58 21.0 °C 15.0 °C 1017.0 hPa ENE 6 km/h 8 km/h 71% 0.00 mm 0.00 W/m2 unknown
05:03 21.0 °C 15.0 °C 1017.1 hPa ENE 6 km/h 8 km/h 71% 0.00 mm 0.00 W/m2 unknown
05:08 20.0 °C 15.0 °C 1017.0 hPa ENE 5 km/h 8 km/h 71% 0.00 mm 0.00 W/m2 unknown
05:14 20.0 °C 15.0 °C 1017.0 hPa ENE 5 km/h 6 km/h 72% 0.00 mm 0.00 W/m2 unknown
05:19 20.0 °C 15.0 °C 1017.1 hPa ENE 5 km/h 6 km/h 73% 0.00 mm 0.00 W/m2 unknown
05:24 20.0 °C 15.0 °C 1017.1 hPa ENE 6 km/h 8 km/h 74% 0.00 mm 0.00 W/m2 unknown
05:29 20.0 °C 15.0 °C 1017.1 hPa ENE 6 km/h 8 km/h 74% 0.00 mm 0.00 W/m2 unknown
05:34 20.0 °C 15.0 °C 1017.2 hPa ENE 6 km/h 8 km/h 74% 0.00 mm 0.00 W/m2 unknown
05:38 20.0 °C 15.0 °C 1017.2 hPa ENE 6 km/h 8 km/h 74% 0.00 mm 5.00 W/m2 unknown
05:44 20.0 °C 16.0 °C 1017.2 hPa ENE 7 km/h 11 km/h 75% 0.00 mm 7.00 W/m2 unknown
05:49 20.0 °C 16.0 °C 1017.2 hPa ENE 7 km/h 11 km/h 75% 0.00 mm 7.00 W/m2 unknown
05:54 20.0 °C 16.0 °C 1017.2 hPa ENE 8 km/h 11 km/h 75% 0.00 mm 11.00 W/m2 unknown
05:59 20.0 °C 16.0 °C 1017.2 hPa ENE 6 km/h 11 km/h 75% 0.00 mm 16.00 W/m2 unknown
06:04 20.0 °C 16.0 °C 1017.2 hPa ENE 6 km/h 8 km/h 75% 0.00 mm 16.00 W/m2 unknown
06:09 20.0 °C 16.0 °C 1017.4 hPa ENE 6 km/h 8 km/h 76% 0.00 mm 26.00 W/m2 unknown
06:14 20.0 °C 16.0 °C 1017.4 hPa ENE 5 km/h 8 km/h 76% 0.00 mm 32.00 W/m2 unknown
06:19 20.0 °C 16.0 °C 1017.4 hPa ENE 5 km/h 6 km/h 76% 0.00 mm 33.00 W/m2 unknown
06:24 20.0 °C 16.0 °C 1017.4 hPa East 3 km/h 6 km/h 76% 0.00 mm 37.00 W/m2 unknown
06:29 20.0 °C 16.0 °C 1017.4 hPa ENE 6 km/h 8 km/h 76% 0.00 mm 46.00 W/m2 unknown
06:34 20.0 °C 16.0 °C 1017.4 hPa NE 7 km/h 10 km/h 76% 0.00 mm 49.00 W/m2 unknown
06:39 20.0 °C 16.0 °C 1017.4 hPa NE 8 km/h 10 km/h 76% 0.00 mm 53.00 W/m2 unknown
06:44 21.0 °C 16.0 °C 1017.4 hPa NE 8 km/h 11 km/h 76% 0.00 mm 67.00 W/m2 unknown
06:49 21.0 °C 16.0 °C 1017.4 hPa ENE 8 km/h 11 km/h 77% 0.00 mm 69.00 W/m2 unknown
06:54 21.0 °C 16.0 °C 1017.4 hPa ENE 6 km/h 8 km/h 77% 0.00 mm 69.00 W/m2 unknown
06:59 21.0 °C 16.0 °C 1017.4 hPa ENE 7 km/h 11 km/h 77% 0.00 mm 63.00 W/m2 unknown
07:04 21.0 °C 17.0 °C 1017.5 hPa NE 8 km/h 11 km/h 78% 0.00 mm 107.00 W/m2 unknown
07:09 21.0 °C 17.0 °C 1017.5 hPa ENE 8 km/h 11 km/h 78% 0.00 mm 125.00 W/m2 unknown
07:14 21.0 °C 17.0 °C 1017.5 hPa ENE 4 km/h 7 km/h 77% 0.00 mm 134.00 W/m2 unknown
07:18 21.0 °C 17.0 °C 1017.6 hPa ENE 5 km/h 8 km/h 77% 0.00 mm 137.00 W/m2 unknown
07:24 21.0 °C 17.0 °C 1017.6 hPa ENE 8 km/h 11 km/h 76% 0.00 mm 158.00 W/m2 unknown
07:29 21.0 °C 17.0 °C 1017.6 hPa NE 8 km/h 11 km/h 76% 0.00 mm 171.00 W/m2 unknown
07:34 22.0 °C 17.0 °C 1017.6 hPa ENE 8 km/h 11 km/h 76% 0.00 mm 179.00 W/m2 unknown
07:39 22.0 °C 17.0 °C 1017.6 hPa ENE 5 km/h 11 km/h 75% 0.00 mm 192.00 W/m2 unknown
07:44 22.0 °C 17.0 °C 1017.7 hPa ENE 8 km/h 11 km/h 75% 0.00 mm 207.00 W/m2 unknown
07:47 22.0 °C 17.0 °C 1017.8 hPa ENE 9 km/h 11 km/h 74% 0.00 mm 218.00 W/m2 unknown
07:54 22.0 °C 17.0 °C 1017.9 hPa ENE 9 km/h 13 km/h 73% 0.00 mm 239.00 W/m2 unknown
07:59 23.0 °C 17.0 °C 1017.8 hPa East 10 km/h 13 km/h 73% 0.00 mm 250.00 W/m2 unknown
08:04 23.0 °C 18.0 °C 1017.9 hPa ENE 8 km/h 11 km/h 72% 0.00 mm 267.00 W/m2 unknown
08:09 23.0 °C 18.0 °C 1017.9 hPa ENE 7 km/h 10 km/h 72% 0.00 mm 283.00 W/m2 unknown
08:14 23.0 °C 18.0 °C 1017.9 hPa ENE 8 km/h 11 km/h 71% 0.00 mm 295.00 W/m2 unknown
08:19 23.0 °C 18.0 °C 1017.9 hPa East 8 km/h 13 km/h 70% 0.00 mm 308.00 W/m2 unknown
08:24 23.0 °C 18.0 °C 1017.8 hPa East 9 km/h 13 km/h 71% 0.00 mm 318.00 W/m2 unknown
08:29 24.0 °C 18.0 °C 1017.8 hPa East 8 km/h 13 km/h 70% 0.00 mm 334.00 W/m2 unknown
08:34 24.0 °C 18.0 °C 1017.8 hPa ESE 8 km/h 13 km/h 70% 0.00 mm 345.00 W/m2 unknown
08:39 24.0 °C 18.0 °C 1017.8 hPa East 10 km/h 15 km/h 70% 0.00 mm 359.00 W/m2 unknown
08:44 24.0 °C 18.0 °C 1017.8 hPa ESE 10 km/h 15 km/h 69% 0.00 mm 373.00 W/m2 unknown
08:49 24.0 °C 18.0 °C 1017.8 hPa ESE 10 km/h 15 km/h 69% 0.00 mm 385.00 W/m2 unknown
08:54 24.0 °C 18.0 °C 1017.8 hPa ESE 10 km/h 17 km/h 68% 0.00 mm 394.00 W/m2 unknown
08:59 24.0 °C 18.0 °C 1017.7 hPa East 13 km/h 17 km/h 68% 0.00 mm 410.00 W/m2 unknown
09:04 25.0 °C 18.0 °C 1017.7 hPa ESE 13 km/h 17 km/h 67% 0.00 mm 420.00 W/m2 unknown
09:09 25.0 °C 18.0 °C 1017.7 hPa East 12 km/h 15 km/h 67% 0.00 mm 438.00 W/m2 unknown
09:14 25.0 °C 18.0 °C 1017.6 hPa East 11 km/h 15 km/h 66% 0.00 mm 452.00 W/m2 unknown
09:19 25.0 °C 18.0 °C 1017.6 hPa East 11 km/h 15 km/h 67% 0.00 mm 464.00 W/m2 unknown
09:24 25.0 °C 18.0 °C 1017.6 hPa East 11 km/h 15 km/h 66% 0.00 mm 475.00 W/m2 unknown
09:29 25.0 °C 19.0 °C 1017.6 hPa ESE 10 km/h 15 km/h 67% 0.00 mm 494.00 W/m2 unknown
09:34 26.0 °C 18.0 °C 1017.7 hPa ESE 8 km/h 13 km/h 66% 0.00 mm 503.00 W/m2 unknown
09:39 26.0 °C 18.0 °C 1017.7 hPa East 8 km/h 14 km/h 65% 0.00 mm 515.00 W/m2 unknown
09:44 26.0 °C 19.0 °C 1017.8 hPa ESE 11 km/h 15 km/h 65% 0.00 mm 529.00 W/m2 unknown
09:49 26.0 °C 18.0 °C 1017.8 hPa ESE 12 km/h 15 km/h 64% 0.00 mm 541.00 W/m2 unknown
09:54 26.0 °C 18.0 °C 1017.8 hPa ESE 12 km/h 15 km/h 62% 0.00 mm 554.00 W/m2 unknown
09:59 26.0 °C 18.0 °C 1017.8 hPa East 12 km/h 16 km/h 63% 0.00 mm 566.00 W/m2 unknown
10:04 26.0 °C 19.0 °C 1017.8 hPa ESE 12 km/h 17 km/h 64% 0.00 mm 578.00 W/m2 unknown
10:09 27.0 °C 19.0 °C 1017.8 hPa ESE 10 km/h 16 km/h 64% 0.00 mm 592.00 W/m2 unknown
10:14 27.0 °C 19.0 °C 1017.8 hPa East 9 km/h 14 km/h 63% 0.00 mm 603.00 W/m2 unknown
10:19 27.0 °C 20.0 °C 1017.7 hPa East 8 km/h 13 km/h 65% 0.00 mm 610.00 W/m2 unknown
10:24 27.0 °C 19.0 °C 1017.7 hPa ENE 8 km/h 13 km/h 63% 0.00 mm 622.00 W/m2 unknown
10:29 27.0 °C 19.0 °C 1017.8 hPa ESE 8 km/h 15 km/h 63% 0.00 mm 631.00 W/m2 unknown
10:34 27.0 °C 19.0 °C 1017.7 hPa ESE 8 km/h 15 km/h 63% 0.00 mm 643.00 W/m2 unknown
10:39 27.0 °C 19.0 °C 1017.7 hPa East 8 km/h 21 km/h 63% 0.00 mm 652.00 W/m2 unknown
10:44 27.0 °C 19.0 °C 1017.7 hPa ENE 11 km/h 21 km/h 62% 0.00 mm 666.00 W/m2 unknown
10:49 27.0 °C 19.0 °C 1017.7 hPa East 10 km/h 21 km/h 62% 0.00 mm 675.00 W/m2 unknown
10:54 27.0 °C 19.0 °C 1017.6 hPa SE 10 km/h 19 km/h 61% 0.00 mm 687.00 W/m2 unknown
10:59 28.0 °C 19.0 °C 1017.6 hPa East 9 km/h 17 km/h 61% 0.00 mm 696.00 W/m2 unknown
11:04 28.0 °C 19.0 °C 1017.6 hPa ENE 13 km/h 17 km/h 61% 0.00 mm 705.00 W/m2 unknown
11:09 27.0 °C 19.0 °C 1017.6 hPa East 13 km/h 17 km/h 59% 0.00 mm 717.00 W/m2 unknown
11:14 28.0 °C 19.0 °C 1017.6 hPa East 11 km/h 16 km/h 60% 0.00 mm 726.00 W/m2 unknown
11:19 28.0 °C 19.0 °C 1017.6 hPa ENE 10 km/h 15 km/h 60% 0.00 mm 731.00 W/m2 unknown
11:24 28.0 °C 20.0 °C 1017.6 hPa ENE 10 km/h 15 km/h 62% 0.00 mm 738.00 W/m2 unknown
11:29 28.0 °C 20.0 °C 1017.6 hPa NE 10 km/h 14 km/h 62% 0.00 mm 745.00 W/m2 unknown
11:34 28.0 °C 20.0 °C 1017.5 hPa East 8 km/h 13 km/h 61% 0.00 mm 754.00 W/m2 unknown
11:39 28.0 °C 19.0 °C 1017.6 hPa East 8 km/h 13 km/h 59% 0.00 mm 758.00 W/m2 unknown
11:44 28.0 °C 19.0 °C 1017.6 hPa East 10 km/h 17 km/h 59% 0.00 mm 770.00 W/m2 unknown
11:49 28.0 °C 20.0 °C 1017.5 hPa East 11 km/h 17 km/h 59% 0.00 mm 779.00 W/m2 unknown
11:54 28.0 °C 20.0 °C 1017.4 hPa East 11 km/h 16 km/h 59% 0.00 mm 784.00 W/m2 unknown
11:59 28.0 °C 19.0 °C 1017.3 hPa East 11 km/h 14 km/h 58% 0.00 mm 793.00 W/m2 unknown
12:04 29.0 °C 19.0 °C 1017.3 hPa ENE 8 km/h 11 km/h 57% 0.00 mm 796.00 W/m2 unknown
12:09 29.0 °C 19.0 °C 1017.2 hPa ENE 10 km/h 19 km/h 57% 0.00 mm 800.00 W/m2 unknown
12:14 29.0 °C 20.0 °C 1017.2 hPa ENE 13 km/h 19 km/h 58% 0.00 mm 805.00 W/m2 unknown
12:19 29.0 °C 20.0 °C 1017.2 hPa NE 11 km/h 19 km/h 57% 0.00 mm 812.00 W/m2 unknown
12:24 29.0 °C 20.0 °C 1017.2 hPa NNE 10 km/h 16 km/h 57% 0.00 mm 816.00 W/m2 unknown
12:28 30.0 °C 20.0 °C 1017.2 hPa NE 9 km/h 15 km/h 56% 0.00 mm 817.00 W/m2 unknown
12:34 30.0 °C 20.0 °C 1017.2 hPa East 9 km/h 15 km/h 55% 0.00 mm 824.00 W/m2 unknown
12:39 29.0 °C 20.0 °C 1017.1 hPa East 10 km/h 15 km/h 57% 0.00 mm 830.00 W/m2 unknown
12:44 29.0 °C 20.0 °C 1017.0 hPa East 10 km/h 14 km/h 57% 0.00 mm 863.00 W/m2 unknown
12:49 29.0 °C 20.0 °C 1017.0 hPa East 9 km/h 14 km/h 56% 0.00 mm 874.00 W/m2 unknown
12:54 30.0 °C 21.0 °C 1016.9 hPa ENE 10 km/h 14 km/h 59% 0.00 mm 847.00 W/m2 unknown
12:59 30.0 °C 20.0 °C 1016.9 hPa ENE 8 km/h 13 km/h 56% 0.00 mm 840.00 W/m2 unknown
13:04 30.0 °C 20.0 °C 1016.9 hPa ENE 6 km/h 11 km/h 56% 0.00 mm 858.00 W/m2 unknown
13:09 30.0 °C 20.0 °C 1016.8 hPa ENE 6 km/h 17 km/h 54% 0.00 mm 893.00 W/m2 unknown
13:14 30.0 °C 19.0 °C 1016.8 hPa ENE 9 km/h 19 km/h 53% 0.00 mm 854.00 W/m2 unknown
13:19 30.0 °C 19.0 °C 1016.8 hPa East 10 km/h 19 km/h 53% 0.00 mm 854.00 W/m2 unknown
13:24 30.0 °C 20.0 °C 1016.8 hPa NNW 10 km/h 19 km/h 54% 0.00 mm 840.00 W/m2 unknown
13:29 30.0 °C 20.0 °C 1016.8 hPa NE 10 km/h 19 km/h 54% 0.00 mm 837.00 W/m2 unknown
13:34 30.0 °C 20.0 °C 1016.7 hPa ESE 7 km/h 11 km/h 53% 0.00 mm 807.00 W/m2 unknown
13:39 30.0 °C 20.0 °C 1016.7 hPa East 8 km/h 11 km/h 53% 0.00 mm 809.00 W/m2 unknown
13:44 30.0 °C 20.0 °C 1016.6 hPa SE 8 km/h 11 km/h 53% 0.00 mm 831.00 W/m2 unknown
13:49 30.0 °C 20.0 °C 1016.7 hPa SE 8 km/h 11 km/h 53% 0.00 mm 828.00 W/m2 unknown
13:54 30.0 °C 19.0 °C 1016.6 hPa ESE 6 km/h 10 km/h 52% 0.00 mm 854.00 W/m2 unknown
13:59 30.0 °C 20.0 °C 1016.6 hPa ESE 6 km/h 10 km/h 54% 0.00 mm 863.00 W/m2 unknown
14:04 31.0 °C 21.0 °C 1016.5 hPa NE 5 km/h 10 km/h 56% 0.00 mm 863.00 W/m2 unknown
14:09 31.0 °C 20.0 °C 1016.5 hPa ENE 3 km/h 10 km/h 53% 0.00 mm 853.00 W/m2 unknown
14:14 31.0 °C 21.0 °C 1016.4 hPa ENE 7 km/h 14 km/h 57% 0.00 mm 849.00 W/m2 unknown
14:19 31.0 °C 20.0 °C 1016.4 hPa East 7 km/h 15 km/h 53% 0.00 mm 838.00 W/m2 unknown
14:24 31.0 °C 20.0 °C 1016.4 hPa ENE 5 km/h 15 km/h 54% 0.00 mm 830.00 W/m2 unknown
14:29 31.0 °C 20.0 °C 1016.4 hPa ENE 8 km/h 15 km/h 53% 0.00 mm 826.00 W/m2 unknown
14:34 31.0 °C 21.0 °C 1016.4 hPa NE 10 km/h 15 km/h 55% 0.00 mm 810.00 W/m2 unknown
14:39 31.0 °C 21.0 °C 1016.4 hPa NE 9 km/h 15 km/h 55% 0.00 mm 800.00 W/m2 unknown
14:44 31.0 °C 20.0 °C 1016.4 hPa East 10 km/h 15 km/h 51% 0.00 mm 777.00 W/m2 unknown
14:49 31.0 °C 21.0 °C 1016.4 hPa SSE 3 km/h 6 km/h 54% 0.00 mm 777.00 W/m2 unknown
14:54 31.0 °C 20.0 °C 1016.4 hPa NNE 3 km/h 6 km/h 53% 0.00 mm 775.00 W/m2 unknown
14:59 32.0 °C 20.0 °C 1016.3 hPa ENE 7 km/h 11 km/h 52% 0.00 mm 768.00 W/m2 unknown
15:04 32.0 °C 21.0 °C 1016.3 hPa NE 10 km/h 15 km/h 53% 0.00 mm 795.00 W/m2 unknown
15:09 32.0 °C 20.0 °C 1016.1 hPa East 10 km/h 14 km/h 52% 0.00 mm 786.00 W/m2 unknown
15:14 32.0 °C 20.0 °C 1016.0 hPa ESE 10 km/h 13 km/h 51% 0.00 mm 780.00 W/m2 unknown
15:19 32.0 °C 21.0 °C 1016.1 hPa East 10 km/h 13 km/h 53% 0.00 mm 775.00 W/m2 unknown
15:24 32.0 °C 20.0 °C 1016.1 hPa NE 8 km/h 13 km/h 52% 0.00 mm 765.00 W/m2 unknown
15:29 32.0 °C 20.0 °C 1016.1 hPa East 6 km/h 11 km/h 50% 0.00 mm 752.00 W/m2 unknown
15:34 31.0 °C 20.0 °C 1016.0 hPa East 7 km/h 10 km/h 52% 0.00 mm 747.00 W/m2 unknown
15:39 32.0 °C 20.0 °C 1015.9 hPa ESE 6 km/h 10 km/h 51% 0.00 mm 740.00 W/m2 unknown
15:44 32.0 °C 20.0 °C 1015.8 hPa ESE 6 km/h 10 km/h 51% 0.00 mm 735.00 W/m2 unknown
15:49 31.0 °C 21.0 °C 1015.7 hPa SE 5 km/h 10 km/h 53% 0.00 mm 682.00 W/m2 unknown
15:54 31.0 °C 20.0 °C 1015.5 hPa East 6 km/h 8 km/h 52% 0.00 mm 640.00 W/m2 unknown
15:59 31.0 °C 20.0 °C 1015.4 hPa ESE 6 km/h 8 km/h 53% 0.00 mm 515.00 W/m2 unknown
16:04 31.0 °C 20.0 °C 1015.4 hPa ESE 5 km/h 8 km/h 52% 0.00 mm 585.00 W/m2 unknown
16:09 31.0 °C 20.0 °C 1015.4 hPa ESE 3 km/h 8 km/h 53% 0.00 mm 570.00 W/m2 unknown
16:14 31.0 °C 20.0 °C 1015.4 hPa ENE 3 km/h 6 km/h 53% 0.00 mm 529.00 W/m2 unknown
16:19 32.0 °C 21.0 °C 1015.4 hPa NNE 3 km/h 6 km/h 53% 0.00 mm 548.00 W/m2 unknown
16:24 32.0 °C 21.0 °C 1015.3 hPa NNW 3 km/h 6 km/h 53% 0.00 mm 531.00 W/m2 unknown
16:29 32.0 °C 20.0 °C 1015.3 hPa North 2 km/h 6 km/h 52% 0.00 mm 485.00 W/m2 unknown
16:34 32.0 °C 20.0 °C 1015.5 hPa WNW 3 km/h 6 km/h 51% 0.00 mm 445.00 W/m2 unknown
16:39 32.0 °C 20.0 °C 1015.4 hPa West 3 km/h 6 km/h 51% 0.00 mm 360.00 W/m2 unknown
16:44 32.0 °C 20.0 °C 1015.4 hPa WSW 3 km/h 6 km/h 52% 0.00 mm 281.00 W/m2 unknown
16:49 31.0 °C 20.0 °C 1015.3 hPa WNW 4 km/h 8 km/h 50% 0.00 mm 325.00 W/m2 unknown
16:54 32.0 °C 21.0 °C 1015.2 hPa North 6 km/h 11 km/h 54% 0.00 mm 397.00 W/m2 unknown
16:59 31.0 °C 21.0 °C 1015.1 hPa NE 7 km/h 11 km/h 56% 0.00 mm 406.00 W/m2 unknown
17:04 31.0 °C 21.0 °C 1015.0 hPa NE 6 km/h 11 km/h 55% 0.00 mm 406.00 W/m2 unknown
17:09 31.0 °C 21.0 °C 1014.8 hPa ENE 6 km/h 8 km/h 56% 0.00 mm 519.00 W/m2 unknown
17:14 31.0 °C 21.0 °C 1014.9 hPa NE 5 km/h 8 km/h 54% 0.00 mm 503.00 W/m2 unknown
17:19 32.0 °C 21.0 °C 1014.9 hPa NNE 4 km/h 6 km/h 54% 0.00 mm 475.00 W/m2 unknown
17:24 32.0 °C 21.0 °C 1014.8 hPa NW 3 km/h 6 km/h 52% 0.00 mm 462.00 W/m2 unknown
17:29 32.0 °C 20.0 °C 1014.8 hPa West 3 km/h 6 km/h 51% 0.00 mm 455.00 W/m2 unknown
17:34 32.0 °C 21.0 °C 1014.9 hPa NW 4 km/h 6 km/h 52% 0.00 mm 466.00 W/m2 unknown
17:39 32.0 °C 21.0 °C 1014.9 hPa WNW 3 km/h 8 km/h 52% 0.00 mm 519.00 W/m2 unknown
17:44 32.0 °C 20.0 °C 1015.0 hPa WNW 6 km/h 8 km/h 49% 0.00 mm 441.00 W/m2 unknown
17:49 32.0 °C 20.0 °C 1015.0 hPa WNW 6 km/h 8 km/h 50% 0.00 mm 200.00 W/m2 unknown
17:54 32.0 °C 20.0 °C 1015.1 hPa WNW 6 km/h 8 km/h 50% 0.00 mm 200.00 W/m2 unknown
17:59 32.0 °C 20.0 °C 1015.0 hPa WNW 6 km/h 8 km/h 51% 0.00 mm 102.00 W/m2 unknown
18:04 31.0 °C 20.0 °C 1015.0 hPa West 5 km/h 8 km/h 53% 0.00 mm 171.00 W/m2 unknown
18:09 31.0 °C 20.0 °C 1015.0 hPa West 4 km/h 6 km/h 52% 0.00 mm 325.00 W/m2 unknown
18:14 31.0 °C 20.0 °C 1014.9 hPa WNW 4 km/h 6 km/h 52% 0.00 mm 260.00 W/m2 unknown
18:19 31.0 °C 20.0 °C 1014.9 hPa WNW 2 km/h 6 km/h 50% 0.00 mm 299.00 W/m2 unknown
18:24 31.0 °C 21.0 °C 1014.8 hPa WNW 2 km/h 6 km/h 53% 0.00 mm 366.00 W/m2 unknown
18:29 31.0 °C 21.0 °C 1014.8 hPa West 3 km/h 6 km/h 54% 0.00 mm 336.00 W/m2 unknown
18:34 31.0 °C 21.0 °C 1014.7 hPa West 4 km/h 8 km/h 53% 0.00 mm 320.00 W/m2 unknown
18:39 31.0 °C 21.0 °C 1014.6 hPa WSW 4 km/h 7 km/h 54% 0.00 mm 292.00 W/m2 unknown
18:44 31.0 °C 21.0 °C 1014.6 hPa SW 3 km/h 8 km/h 53% 0.00 mm 279.00 W/m2 unknown
18:49 31.0 °C 21.0 °C 1014.7 hPa WSW 4 km/h 6 km/h 53% 0.00 mm 276.00 W/m2 unknown
18:54 31.0 °C 20.0 °C 1014.7 hPa WSW 4 km/h 6 km/h 52% 0.00 mm 276.00 W/m2 unknown
18:59 31.0 °C 20.0 °C 1014.6 hPa SW 4 km/h 6 km/h 52% 0.00 mm 137.00 W/m2 unknown
19:04 31.0 °C 20.0 °C 1014.6 hPa WSW 3 km/h 6 km/h 52% 0.00 mm 137.00 W/m2 unknown
19:09 31.0 °C 20.0 °C 1014.6 hPa WSW 2 km/h 6 km/h 52% 0.00 mm 113.00 W/m2 unknown
19:14 31.0 °C 21.0 °C 1014.6 hPa West 3 km/h 6 km/h 55% 0.00 mm 100.00 W/m2 unknown
19:19 31.0 °C 21.0 °C 1014.6 hPa WSW 3 km/h 6 km/h 57% 0.00 mm 155.00 W/m2 unknown
19:24 31.0 °C 21.0 °C 1014.7 hPa ESE 3 km/h 6 km/h 57% 0.00 mm 160.00 W/m2 unknown
19:29 31.0 °C 21.0 °C 1014.7 hPa ESE 4 km/h 6 km/h 57% 0.00 mm 176.00 W/m2 unknown
19:34 30.0 °C 22.0 °C 1014.8 hPa ESE 4 km/h 8 km/h 60% 0.00 mm 171.00 W/m2 unknown
19:39 30.0 °C 22.0 °C 1014.7 hPa ESE 6 km/h 8 km/h 60% 0.00 mm 171.00 W/m2 unknown
19:44 30.0 °C 21.0 °C 1014.7 hPa East 6 km/h 8 km/h 59% 0.00 mm 144.00 W/m2 unknown
19:49 30.0 °C 21.0 °C 1014.8 hPa East 5 km/h 8 km/h 59% 0.00 mm 116.00 W/m2 unknown
19:54 30.0 °C 21.0 °C 1014.8 hPa East 5 km/h 8 km/h 60% 0.00 mm 100.00 W/m2 unknown
19:59 30.0 °C 21.0 °C 1014.8 hPa ENE 3 km/h 6 km/h 60% 0.00 mm 77.00 W/m2 unknown
20:04 30.0 °C 21.0 °C 1014.9 hPa East 3 km/h 6 km/h 60% 0.00 mm 69.00 W/m2 unknown
20:09 30.0 °C 21.0 °C 1015.1 hPa East 3 km/h 6 km/h 61% 0.00 mm 65.00 W/m2 unknown
20:14 30.0 °C 21.0 °C 1015.2 hPa East 3 km/h 5 km/h 60% 0.00 mm 47.00 W/m2 unknown
20:19 30.0 °C 21.0 °C 1015.2 hPa East 2 km/h 4 km/h 60% 0.00 mm 44.00 W/m2 unknown
20:24 30.0 °C 21.0 °C 1015.3 hPa East 2 km/h 4 km/h 59% 0.00 mm 35.00 W/m2 unknown
20:29 30.0 °C 21.0 °C 1015.3 hPa East 3 km/h 5 km/h 60% 0.00 mm 14.00 W/m2 unknown
20:34 30.0 °C 21.0 °C 1015.5 hPa ESE 9 km/h 17 km/h 62% 0.00 mm 7.00 W/m2 unknown
20:39 29.0 °C 21.0 °C 1015.6 hPa ESE 11 km/h 17 km/h 62% 0.00 mm 5.00 W/m2 unknown
20:44 29.0 °C 20.0 °C 1015.6 hPa ESE 10 km/h 16 km/h 60% 0.00 mm 5.00 W/m2 unknown
20:49 29.0 °C 20.0 °C 1015.7 hPa SE 7 km/h 13 km/h 59% 0.00 mm 5.00 W/m2 unknown
20:54 28.0 °C 19.0 °C 1015.6 hPa ESE 7 km/h 11 km/h 58% 0.00 mm 5.00 W/m2 unknown
20:59 28.0 °C 19.0 °C 1015.5 hPa ESE 8 km/h 13 km/h 59% 0.00 mm 0.00 W/m2 unknown
21:04 28.0 °C 19.0 °C 1015.4 hPa ESE 9 km/h 13 km/h 60% 0.00 mm 0.00 W/m2 unknown
21:09 28.0 °C 19.0 °C 1015.6 hPa East 8 km/h 13 km/h 61% 0.00 mm 0.00 W/m2 unknown
21:14 28.0 °C 19.0 °C 1015.7 hPa ESE 10 km/h 16 km/h 61% 0.00 mm 0.00 W/m2 unknown
21:19 27.0 °C 19.0 °C 1015.7 hPa ESE 12 km/h 16 km/h 61% 0.00 mm 0.00 W/m2 unknown
21:24 27.0 °C 19.0 °C 1015.9 hPa ESE 12 km/h 19 km/h 62% 0.00 mm 0.00 W/m2 unknown
21:29 27.0 °C 19.0 °C 1015.9 hPa East 11 km/h 24 km/h 62% 0.00 mm 0.00 W/m2 unknown
21:34 27.0 °C 19.0 °C 1016.1 hPa East 13 km/h 26 km/h 62% 0.00 mm 0.00 W/m2 unknown
21:39 27.0 °C 19.0 °C 1016.1 hPa East 13 km/h 26 km/h 62% 0.00 mm 0.00 W/m2 unknown
21:44 27.0 °C 19.0 °C 1016.2 hPa East 11 km/h 15 km/h 63% 0.00 mm 0.00 W/m2 unknown
21:49 26.0 °C 19.0 °C 1016.4 hPa ENE 9 km/h 15 km/h 63% 0.00 mm 0.00 W/m2 unknown
21:54 26.0 °C 19.0 °C 1016.4 hPa ENE 9 km/h 16 km/h 63% 0.00 mm 0.00 W/m2 unknown
21:59 26.0 °C 19.0 °C 1016.5 hPa East 10 km/h 17 km/h 63% 0.00 mm 0.00 W/m2 unknown
22:04 26.0 °C 18.0 °C 1016.6 hPa ENE 10 km/h 17 km/h 63% 0.00 mm 0.00 W/m2 unknown
22:09 26.0 °C 18.0 °C 1016.7 hPa ENE 8 km/h 13 km/h 62% 0.00 mm 0.00 W/m2 unknown
22:14 26.0 °C 18.0 °C 1016.7 hPa NE 9 km/h 13 km/h 62% 0.00 mm 0.00 W/m2 unknown
22:19 25.0 °C 18.0 °C 1016.8 hPa ENE 10 km/h 13 km/h 62% 0.00 mm 0.00 W/m2 unknown
22:24 25.0 °C 17.0 °C 1016.7 hPa ENE 10 km/h 16 km/h 61% 0.00 mm 0.00 W/m2 unknown
22:29 25.0 °C 17.0 °C 1016.8 hPa ENE 10 km/h 17 km/h 61% 0.00 mm 0.00 W/m2 unknown
22:34 25.0 °C 17.0 °C 1016.8 hPa ENE 10 km/h 16 km/h 61% 0.00 mm 0.00 W/m2 unknown
22:39 25.0 °C 17.0 °C 1016.8 hPa ENE 10 km/h 15 km/h 61% 0.00 mm 0.00 W/m2 unknown
22:44 25.0 °C 17.0 °C 1016.8 hPa ENE 10 km/h 13 km/h 62% 0.00 mm 0.00 W/m2 unknown
22:49 25.0 °C 17.0 °C 1016.8 hPa ENE 8 km/h 10 km/h 63% 0.00 mm 0.00 W/m2 unknown
22:54 25.0 °C 17.0 °C 1016.9 hPa ENE 5 km/h 8 km/h 63% 0.00 mm 0.00 W/m2 unknown
22:59 24.0 °C 17.0 °C 1016.9 hPa ENE 5 km/h 10 km/h 64% 0.00 mm 0.00 W/m2 unknown
23:04 24.0 °C 17.0 °C 1016.9 hPa ENE 7 km/h 10 km/h 64% 0.00 mm 0.00 W/m2 unknown
23:09 24.0 °C 17.0 °C 1016.9 hPa ENE 8 km/h 10 km/h 64% 0.00 mm 0.00 W/m2 unknown
23:14 24.0 °C 17.0 °C 1016.8 hPa East 5 km/h 10 km/h 64% 0.00 mm 0.00 W/m2 unknown
23:19 24.0 °C 17.0 °C 1016.8 hPa East 5 km/h 6 km/h 64% 0.00 mm 0.00 W/m2 unknown
23:23 24.0 °C 17.0 °C 1016.8 hPa East 4 km/h 6 km/h 65% 0.00 mm 0.00 W/m2 unknown
23:29 24.0 °C 17.0 °C 1016.7 hPa ESE 6 km/h 8 km/h 65% 0.00 mm 0.00 W/m2 unknown
23:34 24.0 °C 17.0 °C 1016.8 hPa ENE 5 km/h 8 km/h 65% 0.00 mm 0.00 W/m2 unknown
23:39 24.0 °C 17.0 °C 1016.9 hPa NE 5 km/h 8 km/h 65% 0.00 mm 0.00 W/m2 unknown
23:44 24.0 °C 17.0 °C 1016.9 hPa NNE 4 km/h 8 km/h 65% 0.00 mm 0.00 W/m2 unknown
23:49 24.0 °C 17.0 °C 1017.0 hPa NNE 5 km/h 8 km/h 65% 0.00 mm 0.00 W/m2 unknown
23:54 24.0 °C 17.0 °C 1017.1 hPa NNE 5 km/h 6 km/h 65% 0.00 mm 0.00 W/m2 unknown
23:59 24.0 °C 17.0 °C 1017.1 hPa NNE 5 km/h 8 km/h 65% 0.00 mm 0.00 W/m2 unknown
Stazione Meteorologica MeteoMincio Rivalta s/M (MN)
Con i complimenti di Weather Underground - 4 mb



METEO PILLOLE
La più intensa nevicata in 24 ore
Silverlake nel Colorado - USA
Il 14 aprile 1921 caddero 193 cm di neve. C'è anche un dato, ma non è ufficiale di: Roccacaramanico (1050m), Abruzzo, Italia. Il 17 dicembre del 1961, caddero 340 cm di neve.Il centro abitato si trova a 1050 m, in un imbuto naturale tra il monte Morrone (2061 m) ed il Massiccio della Majella (2793 m) che riceve fortissime precipitazioni da stau con venti settentrionali ed orientali.
Share

Non seguire questo link o sarai bannato dal sito!